SCP
1 1 1 2 2 2 1 2 1 1 1 1 1 1 1 1 1 1 1 0 1 1 2 2 2 2 2 2 2 2 2 2 2 2 2 1 1 1 1 1 1 1 1
1 1 1 2 2 2 2 2 1 1 1 1 1 1 1 0 1 1 1 0 0 1 1 2 2 2 2 2 2 2 2 2 2 2 2 1 1 1 1 1 1 1 1
1 1 1 2 2 2 2 2 1 1 0 0 1 1 1 0 0 1 1 1 0 0 1 1 2 2 2 2 2 2 2 2 2 2 2 2 2 2 1 1 1 1 1
0 0 1 1 2 2 2 2 1 1 0 0 1 1 1 0 0 0 1 1 0 0 0 1 1 2 2 2 2 2 2 2 2 2 2 2 2 2 2 1 1 1 1
0 0 0 1 1 2 2 2 2 1 1 0 0 1 1 0 0 0 0 1 1 0 0 1 1 1 2 2 2 2 2 2 2 2 2 3 3 2 2 1 1 1 1
0 0 0 0 0 1 2 2 2 2 1 0 0 1 1 0 0 0 0 1 1 0 0 1 1 1 1 2 2 2 2 2 2 2 2 2 3 2 2 1 1 1 1
0 0 0 0 0 0 1 2 2 2 1 0 0 1 1 0 0 0 0 1 1 1 1 0 0 0 1 1 1 2 2 2 2 2 2 2 2 3 2 2 1 1 1
0 0 0 0 0 0 0 1 2 2 1 0 0 1 1 0 0 0 0 1 1 1 1 0 0 1 1 1 1 1 2 2 2 2 2 2 2 3 3 2 2 1 1
0 0 0 0 0 0 0 0 1 2 1 0 0 1 1 1 0 0 0 1 1 1 1 0 0 0 1 0 0 0 1 1 2 2 2 2 2 2 3 3 2 1 1
0 0 0 0 0 0 0 0 1 1 1 0 0 0 0 0 0 0 0 1 1 1 1 0 0 0 0 0 0 0 0 1 1 2 2 2 2 2 3 2 2 1 1
0 0 0 0 0 0 0 0 0 1 1 0 0 0 0 0 0 0 0 0 0 0 1 1 0 0 0 0 0 0 0 0 1 1 1 2 2 2 2 2 2 2 1
0 0 0 0 0 0 0 0 0 1 1 0 0 0 0 0 0 0 0 0 0 0 0 0 1 0 0 0 0 0 0 0 0 1 1 1 2 2 2 2 2 1 1
0 0 0 0 0 0 0 0 0 1 1 0 0 0 0 0 0 0 0 0 0 0 0 0 0 0 0 0 0 0 0 0 0 0 0 1 1 1 2 2 1 1 1
0 0 0 0 0 0 0 0 0 0 0 0 0 0 0 0 0 0 0 0 0 0 0 0 0 0 0 0 0 0 0 0 0 0 0 0 1 1 1 1 1 1 1
0 0 0 0 0 0 0 0 0 0 0 0 0 0 0 0 0 0 0 0 0 0 0 0 0 0 0 0 0 0 0 0 0 0 0 0 0 0 1 1 1 1 1
0 0 0 0 0 0 0 0 0 0 0 0 0 0 0 0 0 0 0 0 0 0 0 0 0 0 0 0 0 0 0 0 0 0 0 0 0 0 0 0 0 0 0
0 0 0 0 0 0 0 0 0 0 0 0 0 0 0 0 0 0 0 0 0 0 0 0 0 0 0 0 0 0 0 0 0 0 0 0 0 0 0 0 0 0 0
0 0 0 0 0 0 0 0 0 0 0 0 0 0 0 0 0 0 0 0 0 0 0 0 0 0 0 0 0 0 0 0 0 0 0 0 0 0 0 0 0 0 0
0 0 0 0 0 0 0 0 0 0 0 0 0 0 0 0 0 0 0 0 0 0 0 0 0 0 0 0 0 0 0 0 0 0 0 0 0 0 0 0 0 0 0
0 0 0 0 0 0 0 0 0 0 0 0 0 0 0 0 0 0 0 0 0 0 0 0 0 0 0 0 0 0 0 0 0 0 0 0 0 0 0 0 0 0 0
0 0 0 0 0 0 0 0 0 0 0 0 0 0 0 0 0 0 0 0 0 0 0 0 0 0 0 0 0 0 0 0 0 0 0 0 0 0 0 0 0 0 0
0 0 0 0 0 0 0 0 0 0 0 0 0 0 0 0 0 0 0 0 0 0 0 0 0 0 0 0 0 0 0 0 0 0 0 0 0 0 0 0 0 0 0
0 0 0 0 0 0 0 0 0 0 0 0 0 0 0 0 0 0 0 0 0 0 0 0 0 0 0 0 0 0 0 0 0 0 0 0 0 0 0 0 0 0 0
0 0 0 0 0 0 0 0 0 0 0 0 0 0 0 0 0 0 0 0 0 0 0 0 0 0 0 0 0 0 0 0 0 0 0 0 0 0 0 0 0 0 0
0 0 0 0 0 0 0 0 0 0 0 0 0 0 0 0 0 0 0 0 0 0 0 0 0 0 0 0 0 0 0 0 0 0 0 0 0 0 0 0 0 0 0
0 0 0 0 0 0 0 0 0 0 0 0 0 0 0 0 0 0 0 0 0 0 0 0 0 0 0 0 0 0 0 0 0 0 0 0 0 0 0 0 0 0 0
Wind_Speed
2 2 2 2 2 2 3 3 3 4 4 4 3 4 4 4 4 4 4 8 11 13 14 15 14 14 14 13 14 14 14 14 15 16 16 16 15 15 15 15 14 13 12
1 2 2 2 2 2 3 3 4 3 4 4 4 4 5 5 5 5 4 6 10 12 14 15 15 15 15 14 14 13 13 14 15 15 15 16 15 16 16 15 14 14 13
2 2 2 2 3 3 3 3 4 3 3 4 5 5 5 5 5 6 5 5 5 9 12 14 14 14 15 15 15 14 13 14 14 14 15 15 16 15 16 16 15 14 14
2 2 2 3 3 3 2 3 3 3 3 4 4 5 5 5 6 6 6 5 5 5 8 12 13 14 14 15 15 14 14 13 13 14 14 16 16 16 15 16 15 15 14
3 2 2 3 3 2 2 3 3 3 4 5 5 5 4 5 6 6 6 6 6 6 5 8 12 13 14 14 14 14 13 13 13 14 14 15 16 16 16 15 15 15 14
3 3 2 3 3 2 3 3 4 3 3 4 6 7 5 6 5 6 7 6 6 6 6 6 6 8 12 14 14 14 14 14 14 14 15 15 15 17 17 16 15 15 15
3 3 3 3 3 3 4 4 4 4 4 3 3 5 5 6 6 6 5 5 6 6 6 6 5 5 6 12 13 15 15 16 15 15 15 15 15 16 17 17 16 16 15
4 4 3 4 3 3 4 4 4 3 4 2 1 3 5 4 4 5 5 5 6 5 5 7 7 7 5 5 8 13 15 16 16 15 15 15 15 17 18 16 16 17 16
5 5 5 5 4 4 4 5 5 5 5 3 3 2 3 4 5 4 5 5 5 5 5 5 7 8 7 6 6 10 14 16 16 16 16 16 16 17 17 17 16 17 17
5 5 6 6 5 5 5 6 5 5 5 5 3 4 5 4 4 5 4 3 5 6 6 6 6 7 8 7 7 10 12 13 16 16 17 17 17 17 17 17 17 16 16
5 6 6 5 6 5 6 6 6 6 5 6 5 4 5 5 6 6 8 5 4 5 5 6 6 6 8 7 7 9 11 13 15 16 17 17 17 17 17 17 16 16 14
5 6 6 6 6 6 7 7 7 7 7 7 6 5 5 5 5 6 8 8 7 5 5 5 6 6 6 7 9 10 11 13 14 15 15 16 17 17 16 15 14 13 13
5 6 6 6 6 7 7 7 7 8 8 8 8 7 7 7 6 6 7 8 8 6 5 5 6 6 6 6 6 10 11 13 13 14 14 14 14 14 13 13 13 12 12
7 7 7 7 8 8 8 7 6 8 7 8 10 9 7 7 7 7 7 6 8 7 5 6 4 6 5 5 7 10 8 12 13 13 13 13 12 12 12 12 11 11 10
7 8 7 8 8 8 8 8 7 8 8 8 9 9 8 7 7 7 7 7 7 9 9 6 4 4 4 4 7 6 6 10 12 12 12 12 11 11 11 10 9 8 8
8 8 8 8 8 8 8 8 7 8 9 9 8 9 9 7 7 6 7 7 7 8 10 6 5 5 5 5 8 6 7 10 11 12 12 11 10 9 8 8 9 8 8
9 9 9 9 8 8 8 8 9 9 10 10 10 10 11 9 7 7 6 7 7 7 10 8 5 5 5 6 5 5 5 6 6 10 11 10 9 8 8 7 8 8 8
9 9 9 9 9 9 8 9 10 10 10 11 11 10 11 9 10 7 7 8 7 7 8 10 7 5 6 5 4 4 5 4 4 7 8 8 8 8 8 7 7 6 6
9 8 8 9 9 9 9 9 10 10 11 11 11 11 11 10 10 8 8 8 7 7 7 7 8 5 4 3 3 3 4 3 3 4 5 6 6 7 7 7 6 6 6
9 9 9 9 9 10 10 10 10 10 10 11 11 11 10 11 11 10 9 9 8 8 7 7 6 5 4 3 3 3 3 2 2 2 2 2 4 5 6 6 7 6 6
9 9 9 9 9 9 9 10 9 10 10 10 10 10 10 12 14 12 10 8 8 7 7 6 6 5 4 3 4 3 3 1 1 1 1 1 1 2 3 5 6 7 7
8 8 9 10 10 9 14 17 13 9 9 10 10 9 9 11 13 16 16 15 13 10 8 7 6 7 6 5 4 3 3 2 2 1 2 1 1 1 1 2 5 6 6
9 9 9 9 10 11 16 16 16 10 9 9 9 8 8 8 11 8 11 13 13 16 15 10 8 8 6 6 5 5 4 3 3 2 3 1 1 1 1 2 5 6 6
8 8 9 9 9 10 15 15 16 10 8 8 8 8 8 8 8 8 7 7 7 8 9 8 8 7 6 5 6 5 4 3 1 1 2 2 1 1 1 1 4 6 6
8 8 8 8 8 9 14 15 14 7 7 7 7 7 8 8 11 12 8 7 6 5 6 8 8 7 8 8 7 4 5 4 2 1 1 2 2 1 1 1 2 5 7
8 8 8 7 7 8 12 14 14 6 6 6 6 6 10 10 11 11 7 6 6 5 2 2 3 3 4 5 7 6 6 6 4 2 2 3 3 2 2 1 1 2 3
Wind_Direction
335 329 326 328 324 321 322 319 318 319 316 306 297 284 276 271 267 256 257 265 261 254 255 255 250 247 245 244 242 239 234 232 231 228 226 225 225 224 224 224 224 226 224
302 310 312 314 310 306 303 302 298 298 299 295 294 288 276 270 264 261 256 259 265 261 256 257 256 251 248 247 247 244 241 238 236 234 230 229 228 228 227 227 226 226 226
280 288 301 305 299 297 298 303 301 296 303 307 296 290 285 277 271 264 261 253 252 261 260 258 259 257 251 249 248 246 243 241 239 237 233 231 229 230 230 227 225 228 227
281 281 292 293 293 299 299 299 301 300 299 301 295 287 284 280 278 268 262 257 249 251 257 260 261 260 257 253 248 247 246 243 240 239 238 234 232 231 233 231 228 228 228
289 277 277 283 293 298 294 294 301 286 291 296 291 283 274 271 271 272 263 255 249 245 245 259 260 263 260 257 253 250 249 247 244 242 241 239 234 233 234 234 231 228 229
285 278 278 282 289 294 291 282 282 282 274 284 290 290 276 266 260 256 256 253 247 244 242 248 247 257 260 259 257 254 252 252 250 247 246 244 240 237 235 236 231 228 229
282 277 283 287 282 279 280 277 272 284 282 289 297 299 284 261 253 251 247 247 246 245 240 241 240 241 251 256 257 258 255 253 254 252 247 246 247 242 237 237 234 230 230
282 283 276 275 273 275 280 276 269 269 278 271 277 309 307 300 265 251 243 242 244 244 244 247 241 239 243 242 253 257 257 256 255 255 250 247 249 246 240 237 237 232 228
279 274 272 269 267 259 266 267 257 252 269 262 223 230 269 278 310 273 245 242 243 248 250 247 244 242 240 239 243 250 255 255 254 256 256 254 252 250 246 239 238 233 229
275 274 271 267 265 261 261 262 259 246 252 260 249 233 238 248 271 295 281 253 254 255 249 257 252 243 239 236 241 252 253 255 255 257 258 257 255 252 248 244 238 236 231
274 272 270 267 266 264 261 261 261 250 244 246 244 245 253 253 244 257 279 278 269 249 248 246 247 248 242 236 234 242 254 256 256 258 259 261 258 256 252 247 243 236 233
281 273 270 266 264 262 260 259 257 251 247 247 245 240 244 249 246 248 264 274 277 271 263 250 245 246 246 237 240 249 251 255 257 259 260 261 261 259 257 251 248 235 230
283 277 275 270 268 264 261 258 257 254 249 247 243 242 242 247 251 255 263 272 279 284 269 254 240 241 249 239 240 250 251 254 257 258 259 260 262 260 258 256 249 235 228
272 274 272 271 270 269 267 261 259 256 253 249 248 246 249 248 247 249 251 263 278 282 271 263 247 232 238 239 246 254 247 253 254 256 257 257 258 255 251 250 242 234 224
277 276 274 273 272 268 265 262 258 258 256 255 250 246 247 248 246 249 246 242 251 271 275 268 260 232 233 245 251 242 239 248 255 255 254 251 251 249 246 239 226 220 213
277 279 277 274 271 269 265 261 259 258 256 258 254 250 251 249 248 247 244 244 239 248 266 263 267 267 251 261 261 252 243 254 253 252 248 246 246 243 231 219 209 210 212
279 277 276 272 271 270 268 264 262 262 259 260 256 254 253 250 249 247 245 246 245 243 260 272 270 269 251 249 258 250 247 241 243 245 244 238 235 228 219 209 203 204 207
279 277 278 273 272 271 268 266 268 267 263 262 258 256 258 254 248 246 244 248 248 243 248 265 272 270 257 243 242 251 260 251 241 241 237 230 224 220 214 207 201 196 195
282 280 279 276 273 272 271 269 267 266 264 263 258 255 256 253 251 246 242 245 250 250 244 251 265 269 264 247 242 262 260 251 249 231 226 225 221 218 207 201 191 184 185
282 279 277 275 274 275 273 271 269 266 265 265 261 255 254 250 248 245 245 242 244 245 241 243 254 259 257 244 222 236 264 248 249 237 227 225 219 212 201 194 182 174 173
283 281 280 280 276 274 272 275 272 268 266 268 265 259 255 256 257 255 253 243 239 239 236 238 243 246 244 226 222 219 239 250 274 217 149 173 163 169 179 172 165 165 166
289 287 283 281 280 279 286 289 284 274 270 268 268 266 264 262 264 265 264 261 253 243 235 236 240 237 235 226 219 209 208 225 263 190 144 123 116 139 157 159 144 148 155
296 292 288 282 278 281 291 294 290 285 274 270 269 270 272 270 273 266 268 269 264 252 244 241 241 238 232 220 209 215 216 215 231 187 137 132 100 117 109 124 129 137 143
300 297 294 289 285 285 296 299 300 291 278 271 269 268 268 270 267 270 268 263 261 253 245 242 237 238 236 223 211 215 198 162 137 150 142 152 118 100 60 85 119 132 136
303 302 301 298 294 293 299 301 302 290 283 282 277 273 271 266 268 273 269 264 266 261 254 244 241 236 232 227 216 188 171 155 176 202 134 139 143 103 80 59 99 123 131
300 304 302 303 301 297 301 304 305 289 286 287 283 276 276 274 270 271 263 255 259 260 243 245 247 248 233 218 223 211 185 171 169 190 172 138 147 128 101 37 50 108 123